Back to catalog

COSMOS 252 DEB

AliveLEO
NORAD 3551·DEBRIS·🇷🇺 Russia

Launched Nov 1, 1968 from Baikonur Cosmodrome

Loading…

Next Passes (next 24 hours)

TLE

FreshSource: Space-Track

Epoch: Sep 13, 2026, 19:51 UTC

1 03551U 68097D   26256.82750381  .00000795  00000-0  21200-3 0  9998
2 03551  62.2831 205.5354 0601568 169.4698 191.9624 13.82109149820809

Track COSMOS 252 DEB in real time with AllMySat

Download on the App Store